Skip Page Navigation
NASA JPL Caltech
NASA Logo - Jet Propulsion Laboratory + View the NASA Portal
+ Near-Earth Object (NEO) Program
Search JPL
JPL Home Earth Solar System Stars & Galaxies Technology
JPL Solar System Dynamics
BODIES ORBITS EPHEMERIDES TOOLS PHYSICAL DATA DISCOVERY FAQ SITE MAP
JPL Small-Body Database Browser
Search: [ help ]  
21615 Guardamano (1999 JQ76)
Classification: Main-belt Asteroid          SPK-ID: 2021615
Ephemeris | Orbit Diagram | Orbital Elements | Physical Parameters | Discovery Circumstances ]

[ hide orbit diagram ]
Orbit Diagram
Note: Make sure you have Java enabled on your browser to see the applet. This applet is provided as a 3D orbit visualization tool. The applet was implemented using 2-body methods, and hence should not be used for determining accurate long-term trajectories (over several years or decades) or planetary encounter circumstances. For accurate long-term ephemerides, please instead use our Horizons system.
Orbit Viewer

Additional Notes: the orbits shown in the applet are color coded. The planets are white lines, and the asteroid/comet is a blue line. The bright white line indicates the portion of the orbit that is above the ecliptic plane, and the darker portion is below the ecliptic plane. Likewise for the asteroid/comet orbit, the light blue indicates the portion above the ecliptic plane, and the dark blue the portion below the ecliptic plane.

Orbit Viewer applet originally written and kindly provided by Osamu Ajiki (AstroArts), and further modified by Ron Baalke (JPL).


Orbital Elements at Epoch 2456400.5 (2013-Apr-18.0) TDB
Reference: MPO231566 (heliocentric ecliptic J2000)
 Element Value Uncertainty (1-sigma)   Units 
e 0.0718335 n/a  
a 2.2863966 n/a AU
q 2.1221567 n/a AU
i 6.12626 n/a deg
node 166.97014 n/a deg
peri 100.23925 n/a deg
M 349.01923 n/a deg
tp 2456439.0173204
(2013-May-26.51732040)
n/a JED
period 1262.7744101
3.46
n/a
n/a
d
yr
n 0.28508655 n/a deg/d
Q 2.4506365 n/a AU
  Orbit Determination Parameters
   # obs. used (total)      626  
   first obs. used      1993-??-??  
   last obs. used      2012-05-22  
   # oppositions      12  
   planetary ephem.      DE403  
   condition code      0  
   fit RMS      0.58  
   data source      MPC:mpn  
   producer      MPCLINUX  

Additional Information
 T_jup = 3.591 

Ephemeris | Orbit Diagram | Orbital Elements | Physical Parameters | Discovery Circumstances ]

Physical Parameter Table
Parameter Symbol Value Units Sigma Reference Notes
absolute magnitude H 15.8 mag n/a PDS3 (MPO 8807)  

21615 Guardamano           Discovered 1999 May 10 by the Lincoln Laboratory Near-Earth Asteroid Research Team at Socorro.
Andrew Lacson Guardamano (b. 1986) was awarded second place in the 2005 Intel International Science and Engineering Fair for his medicine and health team project. He attends the Archbishop MacDonald High School, Edmonton, Alberta, Canada.
NOTE: some special characters may not display properly (any characters within {} are an attempt to place the proper accent above a character)
Reference: 20050822/MPCPages.arcLast Updated: 2005-08-26

Alternate Designations
 1999 JQ76 = 1993 UQ7 
Ephemeris | Orbit Diagram | Orbital Elements | Physical Parameters | Discovery Circumstances ]
ABOUT SSD CREDITS/AWARDS PRIVACY/COPYRIGHT GLOSSARY LINKS
FirstGov 2013-May-19 01:01 UT
(server date/time)  
NASA Home Page
Site Manager:   Donald K. Yeomans
Webmaster  Alan B. Chamberlin